EW6030 Weather Reports


Display with metric or nautical units.
time (UTC)temp
F
wind
direction
speed
MPH
gust
MPH
rain 1hr
in
rain 24hr
in
rain mn
in
humidity
%
barometer
mb
20260507060009 35 110 0.0 0.0 0.00 0.00 0.00 70 1012.8
20260507054513 35 110 0.0 0.0 0.00 0.00 0.00 69 1012.9
20260507053004 36 110 0.0 0.0 0.00 0.00 0.00 68 1013.0
20260507051501 36 110 0.0 0.0 0.00 0.00 0.00 67 1013.0
20260507050058 37 110 0.0 0.0 0.00 0.00 0.00 67 1013.1
20260507044555 37 110 0.0 0.0 0.00 0.00 0.00 65 1013.3
20260507043053 38 110 0.0 0.0 0.00 0.00 0.00 63 1013.3
20260507041553 38 110 0.0 0.0 0.00 0.00 0.00 61 1013.4
20260507040053 39 110 0.0 0.0 0.00 0.00 0.00 61 1013.6
20260507034551 40 110 0.0 0.0 0.00 0.00 0.00 59 1013.5
20260507033050 40 110 0.0 0.0 0.00 0.00 0.00 58 1013.6
20260507031545 41 110 0.0 0.0 0.00 0.00 0.00 57 1013.6
20260507030044 41 110 0.0 0.0 0.00 0.00 0.00 55 1013.5
20260507024543 42 110 0.0 0.0 0.00 0.00 0.00 55 1013.4
20260507023048 42 110 0.0 0.0 0.00 0.00 0.00 53 1013.3
20260507021544 43 135 0.0 0.0 0.00 0.00 0.00 53 1013.1
20260507014537 44 127 0.0 0.0 0.00 0.00 0.00 51 1012.8
20260507013048 44 106 0.0 0.0 0.00 0.00 0.00 51 1012.6
20260507011536 45 105 0.0 0.0 0.00 0.00 0.00 49 1012.5
20260507010036 45 120 1.0 0.0 0.00 0.00 0.00 48 1012.5
20260507004536 46 54 0.0 0.0 0.00 0.00 0.00 50 1012.3
20260507003041 46 66 0.0 0.0 0.00 0.00 0.00 49 1012.1
20260507001535 46 106 1.0 0.0 0.00 0.00 0.00 49 1012.1
20260507000034 46 92 0.0 0.0 0.00 0.00 0.00 48 1011.9
20260506234529 47 78 1.0 0.0 0.00 0.00 0.00 46 1012.0
20260506233029 48 3 1.0 0.0 0.00 0.00 0.00 44 1012.0
20260506231528 49 64 2.0 0.0 0.00 0.00 0.00 44 1011.9
20260506230026 50 68 2.0 0.0 0.00 0.00 0.00 42 1011.7
20260506224525 50 105 3.0 0.0 0.00 0.00 0.00 43 1011.5
20260506223027 51 112 2.0 0.0 0.00 0.00 0.00 43 1011.5
20260506221524 51 115 4.0 0.0 0.00 0.00 0.00 42 1011.4
20260506220025 52 110 2.0 0.0 0.00 0.00 0.00 42 1011.1
20260506214536 53 112 1.0 0.0 0.00 0.00 0.00 42 1011.1
20260506213024 51 52 1.0 0.0 0.00 0.00 0.00 43 1011.0
20260506211522 51 43 2.0 0.0 0.00 0.00 0.00 43 1011.0
20260506210026 52 105 1.0 0.0 0.00 0.00 0.00 43 1011.1
20260506204521 52 37 1.0 0.0 0.00 0.00 0.00 43 1011.0
20260506203021 53 101 1.0 0.0 0.00 0.00 0.00 40 1011.0
20260506201521 53 110 1.0 0.0 0.00 0.00 0.00 41 1011.0
20260506200021 53 64 1.0 0.0 0.00 0.00 0.00 39 1011.0
20260506194520 54 107 1.0 0.0 0.00 0.00 0.00 39 1010.9
20260506193019 55 114 1.0 0.0 0.00 0.00 0.00 39 1010.9
20260506191519 54 106 1.0 0.0 0.00 0.00 0.00 38 1010.8
20260506190017 54 89 1.0 0.0 0.00 0.00 0.00 41 1010.7
20260506184532 54 107 1.0 0.0 0.00 0.00 0.00 40 1010.9
20260506183022 53 65 2.0 0.0 0.00 0.00 0.00 41 1010.8
20260506181516 52 29 1.0 0.0 0.00 0.00 0.00 42 1010.9
20260506180015 53 70 2.0 0.0 0.00 0.00 0.00 40 1011.0
20260506174511 53 126 2.0 0.0 0.00 0.00 0.00 42 1011.0
20260506173010 52 62 2.0 0.0 0.00 0.00 0.00 43 1010.9
20260506171510 53 58 1.0 0.0 0.00 0.00 0.00 43 1011.1
20260506170009 53 91 1.0 0.0 0.00 0.00 0.00 45 1011.2
20260506164509 52 137 1.0 0.0 0.00 0.00 0.00 46 1011.3
20260506163008 52 88 1.0 0.0 0.00 0.00 0.00 44 1011.3
20260506161512 51 105 2.0 0.0 0.00 0.00 0.00 46 1011.4
20260506160009 52 93 2.0 0.0 0.00 0.00 0.00 44 1011.3
20260506154506 52 52 1.0 0.0 0.00 0.00 0.00 45 1011.2
20260506153003 52 89 1.0 0.0 0.00 0.00 0.00 47 1011.1
20260506151503 51 65 0.0 0.0 0.00 0.00 0.00 48 1011.4
20260506150002 51 197 1.0 0.0 0.00 0.00 0.00 49 1011.4
20260506144602 50 119 1.0 0.0 0.00 0.00 0.00 50 1011.3
20260506143055 49 102 1.0 0.0 0.00 0.00 0.00 53 1011.5
20260506141551 48 114 1.0 0.0 0.00 0.00 0.00 55 1011.2
20260506140050 47 76 0.0 0.0 0.00 0.00 0.00 56 1011.2
20260506134547 47 219 0.0 0.0 0.00 0.00 0.00 58 1011.0
20260506133047 45 120 0.0 0.0 0.00 0.00 0.00 62 1010.8
20260506131551 42 95 0.0 0.0 0.00 0.00 0.00 66 1011.0
20260506130042 41 97 0.0 0.0 0.00 0.00 0.00 67 1010.9
20260506124539 40 63 0.0 0.0 0.00 0.00 0.00 70 1010.7
20260506123038 39 193 0.0 0.0 0.00 0.00 0.00 71 1010.5
20260506121535 38 195 0.0 0.0 0.00 0.00 0.00 74 1010.0
20260506120038 37 196 0.0 0.0 0.00 0.00 0.00 75 1009.6
20260506114532 36 196 0.0 0.0 0.00 0.00 0.00 75 1009.7
20260506113039 35 196 0.0 0.0 0.00 0.00 0.00 76 1009.5
20260506111532 35 196 0.0 0.0 0.00 0.00 0.00 76 1009.7
20260506110030 35 196 0.0 0.0 0.00 0.00 0.00 76 1009.6
20260506104533 35 196 0.0 0.0 0.00 0.00 0.00 75 1009.4
20260506103027 35 196 0.0 0.0 0.00 0.00 0.00 75 1009.3
20260506101527 35 196 0.0 0.0 0.00 0.00 0.00 75 1009.2
20260506100026 35 196 0.0 0.0 0.00 0.00 0.00 75 1009.2
20260506094526 35 196 0.0 0.0 0.00 0.00 0.00 75 1009.3
20260506093024 36 196 0.0 0.0 0.00 0.00 0.00 76 1009.0
20260506091524 36 196 0.0 0.0 0.00 0.00 0.00 75 1009.1
20260506090024 36 196 0.0 0.0 0.00 0.00 0.00 74 1009.3
20260506084518 36 196 0.0 0.0 0.00 0.00 0.00 74 1009.2
20260506083017 37 196 0.0 0.0 0.00 0.00 0.00 73 1009.0
20260506081516 37 196 0.0 0.0 0.00 0.00 0.00 72 1008.8
20260506073010 38 196 0.0 0.0 0.00 0.00 0.00 69 1008.6
20260506071508 38 196 0.0 0.0 0.00 0.00 0.00 69 1008.5
20260506061502 40 196 0.0 0.0 0.00 0.00 0.00 63 1008.8